Zurück zum Katalog

STARLINK-37752

AktivKommunikationVLEO
NORAD 100048·PAYLOAD·🇺🇸 United States

Gestartet Jul 14, 2026 von Cape Canaveral Space Force Station

Loading…

Nächste Überflüge (nächste 24 Stunden)

TLE

AktuellSource: Space-Track

Epoche: Sep 14, 2026, 14:28 UTC

1 A0048U 26161W   26257.60346538  .00012652  00000-0  38506-3 0  9996
2 A0048  53.1598  25.3908 0000988  75.5959 284.5153 15.34391999  9704

Verfolge STARLINK-37752 in Echtzeit mit AllMySat

Download on the App Store